Lazy 5 Park, Sparks, Nevada Weather observations

Data are for 10 minute period ending at time listed.
 Day   Time   Solar   Ave.   Ave.  Ave.  Vector  Max.   Baro.   Total    
  of    of     Rad.   Air    Rel.  Wind   Wind   Wind  Press.  Precip.   
Year   Day            Temp.  Hum.  Speed  Dir.   Gust                    
2026   (PST)  Kw/m2    F      %     mph   deg.    mph    mb.     in.     
-------------------------------------------------------------------------
 123    7:40   0.26   53.4    73    0.0   114     0.0   99999.0    0.00 
 123    7:50   0.20   53.9    72    0.7   320     2.8   99999.0    0.00 
 123    8:00   0.24   54.3    69    0.7   286     2.8   99999.0    0.00 
 123    8:10   0.38   55.3    69    0.1   360     1.7   99999.0    0.00 
 123    8:20   0.42   56.6    64    0.8     3     3.1   99999.0    0.00 
 123    8:30   0.45   57.9    63    1.0   339     3.5   99999.0    0.00 
 123    8:40   0.39   58.3    59    1.5    33     3.5   99999.0    0.00 
 123    8:50   0.28   58.4    58    1.3   320     3.1   99999.0    0.00 
 123    9:00   0.43   59.4    56    2.4   262     4.6   99999.0    0.00 
 123    9:10   0.29   60.1    56    1.2   273     4.2   99999.0    0.00 
 123    9:20   0.32   60.5    54    1.7   286     3.8   99999.0    0.00 
 123    9:30   0.34   61.4    52    2.4   236     4.6   99999.0    0.00 
 123    9:40   0.41   62.2    49    2.3   262     4.2   99999.0    0.00 
 123    9:50   0.37   63.3    43    1.9   175     4.6   99999.0    0.00 
 123   10:00   0.48   63.9    40    2.0   150     4.6   99999.0    0.00 
 123   10:10   0.54   64.9    37    2.5   167     6.0   99999.0    0.00 
 123   10:20   0.66   66.2    34    2.7   170     5.3   99999.0    0.00 
 123   10:30   0.68   67.3    34    2.8   253     8.1   99999.0    0.00 
 123   10:40   0.72   67.4    34    3.0   330     6.0   99999.0    0.00 
 123   10:50   0.74   67.7    33    3.0    43     4.9   99999.0    0.00 
 123   11:00   0.63   67.6    32    3.2    35     4.9   99999.0    0.00 
 123   11:10   0.58   69.4    28    2.9   217     6.7   99999.0    0.00 
 123   11:20   0.59   69.8    27    2.6   191     5.6   99999.0    0.00 
 123   11:30   0.61   69.4    28    3.8   347     6.3   99999.0    0.00 
 123   11:40   0.68   69.7    27    3.5   310     5.6   99999.0    0.00 
 123   11:50   0.68   71.7    23    4.2   254     8.9   99999.0    0.00 
 123   12:00   0.66   72.3    21    3.3   218     6.7   99999.0    0.00 
 123   12:10   0.54   71.8    21    3.5   227     9.6   99999.0    0.00 
 123   12:20   0.47   70.4    22    3.5    50     7.8   99999.0    0.00 
 123   12:30   0.58   71.3    20    4.4    97     8.5   99999.0    0.00 
 123   12:40   0.49   71.7    20    2.9   129     6.0   99999.0    0.00 
 123   12:50   0.44   72.2    18    3.5    95     9.9   99999.0    0.00 
 123   13:00   0.36   71.9    17    3.5    89     8.5   99999.0    0.00 
 123   13:10   0.34   71.9    18    4.7   230     9.2   99999.0    0.00 
 123   13:20   0.33   70.5    18    5.1    23    11.4   99999.0    0.00 
 123   13:30   0.38   71.0    17    3.3   197     7.1   99999.0    0.00 
 123   13:40   0.49   72.4    15    7.4   216    12.4   99999.0    0.00 
 123   13:50   0.46   73.3    14    4.9   203     9.9   99999.0    0.00 
 123   14:00   0.23   73.0    15    6.7   237    13.1   99999.0    0.00 
 123   14:10   0.11   71.5    15    5.3   255    10.6   99999.0    0.00 
 123   14:20   0.10   62.9    35   19.8   307    36.7   99999.0    0.00 
 123   14:30   0.06   58.4    43   20.8   294    31.0   99999.0    0.00 
 123   14:40   0.04   55.3    53   21.2   308    29.2   99999.0    0.00 
 123   14:50   0.08   54.5    56   19.0   326    27.4   99999.0    0.00 
 123   15:00   0.15   54.9    55   19.6   351    29.6   99999.0    0.00 
 123   15:10   0.20   56.0    51   17.0   354    25.7   99999.0    0.00 
 123   15:20   0.21   57.1    49   11.9   343    17.1   99999.0    0.00 
 123   15:30   0.23   57.1    49   12.1    14    16.7   99999.0    0.00 
 123   15:40   0.16   57.1    48   12.5   349    19.2   99999.0    0.00 
 123   15:50   0.16   55.8    50   13.5    12    19.6   99999.0    0.00 
 123   16:00   0.31   54.7    53   11.3    28    18.1   99999.0    0.00 
 123   16:10   0.21   54.7    52   12.6    31    21.0   99999.0    0.00 
 123   16:20   0.17   55.3    50   11.3    36    18.5   99999.0    0.00 
 123   16:30   0.16   55.9    46   12.4    35    18.9   99999.0    0.00 
 123   16:40   0.10   55.9    46   11.9    28    16.4   99999.0    0.00 
 123   16:50   0.12   56.2    45   11.3    28    16.0   99999.0    0.00 
 123   17:00   0.18   57.0    45    8.8    29    12.8   99999.0    0.00 
 123   17:10   0.11   57.3    43    5.1    53     8.5   99999.0    0.00 
 123   17:20   0.11   57.9    42    6.3    88    11.7   99999.0    0.00 
 123   17:30   0.14   57.7    41    6.4    72    12.8   99999.0    0.00 
 123   17:40   0.15   57.7    42    4.3    61     9.6   99999.0    0.00 
 123   17:50   0.06   57.3    43    6.1    72    14.2   99999.0    0.00 
 123   18:00   0.05   56.2    45    7.3    54    14.2   99999.0    0.00 
 123   18:10   0.05   56.0    46    7.2    53    13.5   99999.0    0.00 
 123   18:20   0.05   55.7    48    5.7    41     9.2   99999.0    0.00 
 123   18:30   0.03   55.4    48    6.4    42    10.3   99999.0    0.00 
 123   18:40   0.01   55.4    48    5.8    42     9.6   99999.0    0.00 
 123   18:50   0.01   55.0    49    6.1    30     8.5   99999.0    0.00 
 123   19:00   0.00   54.8    49    4.2    43     6.7   99999.0    0.00 
 123   19:10   0.00   54.9    48    2.8    51     4.9   99999.0    0.00 
 123   19:20   0.00   54.4    49    3.2   198     6.0   99999.0    0.00 
 123   19:30   0.00   54.3    49    2.1   180     4.6   99999.0    0.00 
 123   19:40   0.00   54.3    49    1.3   132     5.3   99999.0    0.00 
 123   19:50   0.00   54.3    50    2.5   171     5.3   99999.0    0.00 
 123   20:00   0.00   54.0    51    5.1   170    10.6   99999.0    0.00 
 123   20:10   0.00   53.8    52    4.8   120     7.4   99999.0    0.00 
 123   20:20   0.00   53.6    52    2.8    77     6.3   99999.0    0.00 
 123   20:30   0.00   53.3    52    3.1    75     4.6   99999.0    0.00 
 123   20:40   0.00   53.0    53    2.5    53     4.6   99999.0    0.00 
 123   20:50   0.00   53.3    52    3.6    55     5.3   99999.0    0.00 
 123   21:00   0.00   53.4    52    1.8    77     3.1   99999.0    0.00 
 123   21:10   0.00   53.0    54    3.4    29     6.0   99999.0    0.00 
 123   21:20   0.00   52.2    55    2.8   212     5.3   99999.0    0.00 
 123   21:30   0.00   51.0    58    3.1   293     5.6   99999.0    0.00 
 123   21:40   0.00   50.8    61    3.7   301     5.6   99999.0    0.00 
 123   21:50   0.00   49.9    61    3.1   273     4.6   99999.0    0.00 
 123   22:00   0.00   49.3    64    2.9   322     5.6   99999.0    0.00 
 123   22:10   0.00   49.2    62    1.5   338     3.8   99999.0    0.00 
 123   22:20   0.00   48.7    61    3.2   289     4.6   99999.0    0.00 
 123   22:30   0.00   47.0    68    3.4   335     5.3   99999.0    0.00 
 123   22:40   0.00   46.3    70    3.2   334     4.2   99999.0    0.00 
 123   22:50   0.00   46.7    70    2.6     8     3.5   99999.0    0.00 
 123   23:00   0.00   48.2    65    1.6    48     3.1   99999.0    0.00 
 123   23:10   0.00   48.6    66    1.3    32     3.5   99999.0    0.00 
 123   23:20   0.00   48.9    62    2.0    69     3.8   99999.0    0.00 
 123   23:30   0.00   48.6    63    2.3    86     3.1   99999.0    0.00 
 123   23:40   0.00   48.1    66    1.1    56     3.1   99999.0    0.00 
 123   23:50   0.00   48.1    65    0.1    84     1.7   99999.0    0.00 
 124    0:00   0.00   47.7    65    1.7   195     3.8   99999.0    0.00 
 124    0:10   0.00   46.2    71    3.0   302     5.6   99999.0    0.00 
 124    0:20   0.00   46.8    70    1.4   326     3.8   99999.0    0.00 
 124    0:30   0.00   46.6    72    1.1   312     2.8   99999.0    0.00 
 124    0:40   0.00   45.6    71    2.4   304     4.2   99999.0    0.00 
 124    0:50   0.00   45.5    72    2.1   301     3.8   99999.0    0.00 
 124    1:00   0.00   46.8    69    1.4     6     3.8   99999.0    0.00 
 124    1:10   0.00   47.8    66    2.2   277     3.5   99999.0    0.00 
 124    1:20   0.00   48.0    66    1.6   218     5.6   99999.0    0.00 
 124    1:30   0.00   48.3    65    1.0    98     4.9   99999.0    0.00 
 124    1:40   0.00   48.3    65    2.1   184     3.8   99999.0    0.00 
 124    1:50   0.00   47.9    68    3.2   249     4.9   99999.0    0.00 
 124    2:00   0.00   48.2    66    2.0   229     3.1   99999.0    0.00 
 124    2:10   0.00   48.5    67    2.3   186     5.3   99999.0    0.00 
 124    2:20   0.00   48.4    68    1.5   236     4.2   99999.0    0.00 
 124    2:30   0.00   48.4    68    1.3   170     3.1   99999.0    0.00 
 124    2:40   0.00   48.4    67    3.1   194     4.9   99999.0    0.00 
 124    2:50   0.00   48.3    67    0.6   196     3.5   99999.0    0.00 
 124    3:00   0.00   47.9    72    4.1    14     6.7   99999.0    0.00 
 124    3:10   0.00   48.5    70    2.9    14     6.0   99999.0    0.00 
 124    3:20   0.00   48.3    70    0.1   322     1.0   99999.0    0.00 
 124    3:30   0.00   48.2    67    0.7   311     2.8   99999.0    0.00 
 124    3:40   0.00   48.4    66    1.9    86     3.5   99999.0    0.00 
 124    3:50   0.00   48.7    64    3.0    86     5.6   99999.0    0.00 
 124    4:00   0.00   49.1    63    2.5    77     4.2   99999.0    0.00 
 124    4:10   0.00   48.4    66    2.7   125     5.3   99999.0    0.00 
 124    4:20   0.00   47.5    68    1.1   190     3.8   99999.0    0.00 
 124    4:30   0.00   46.5    70    1.6   263     3.1   99999.0    0.00 
 124    4:40   0.00   46.0    72    1.2   242     3.8   99999.0    0.00 
 124    4:50   0.00   46.3    74    2.2   331     3.5   99999.0    0.00 
 124    5:00   0.00   46.6    72    0.6   241     2.4   99999.0    0.00 
 124    5:10   0.00   47.1    70    0.1   151     1.3   99999.0    0.00 
 124    5:20   0.01   47.1    74    1.4     9     4.2   99999.0    0.00 
 124    5:30   0.01   46.9    74    0.5   356     2.1   99999.0    0.00 
 124    5:40   0.01   47.0    71    3.8   216     6.3   99999.0    0.00 
 124    5:50   0.02   47.6    69    3.0   221     6.7   99999.0    0.00 
 124    6:00   0.03   48.1    69    1.0   150     4.2   99999.0    0.00 
 124    6:10   0.06   48.3    67    0.9   171     2.8   99999.0    0.00 
 124    6:20   0.09   48.8    67    1.1   208     2.8   99999.0    0.00 
 124    6:30   0.14   49.4    68    0.8    82     2.8   99999.0    0.00 
 124    6:40   0.14   50.5    63    0.9   159     2.4   99999.0    0.00 
 124    6:50   0.19   51.7    59    1.5   110     3.5   99999.0    0.00 
 124    7:00   0.18   52.1    59    0.1     8     1.3   99999.0    0.00 
 124    7:10   0.18   52.2    59    1.3    24     2.8   99999.0    0.00 
 124    7:20   0.14   52.0    60    2.5    23     4.2   99999.0    0.00 
 124    7:30   0.06   51.9    58    1.8   304     3.5   99999.0    0.00 

Return to Lazy 5 Park graphs page.


Western Regional Climate Center,wrcc@dri.edu